Regional Weather Roundup
Issued by NWS Little Rock, AR

Home | Current Version | Previous Version | Graphics & Text | Print | Product List | Glossary On
Versions: 1 2 3 4 5 6 7 8 9 10 11 12 13 14 15 16 17 18 19 20 21 22 23 24 25 26 27 28 29 30 31 32 33 34 35 36 37 38 39 40 41 42 43 44 45 46 47 48 49 50
000
ASUS44 KLZK 252005
RWRLZK

WEATHER ROUNDUP FOR ARKANSAS
NATIONAL WEATHER SERVICE LITTLE ROCK AR
300 PM CDT MON MAY 25 2015

NOTE: "FAIR" INDICATES FEW OR NO CLOUDS BELOW 12,000 FEET WITH NO
SIGNIFICANT WEATHER AND/OR OBSTRUCTIONS TO VISIBILITY.

ARZ001-003-010-029-252100-
NORTHWEST ARKANSAS

CITY           SKY/WX    TMP DP  RH WIND       PRES   REMARKS
FAYETTEVILLE   MOSUNNY   78  66  66 S13       29.96F
FORT SMITH     PTSUNNY   83  66  56 SE8       29.90F HX  85
HARRISON       PTSUNNY   79  65  62 S15       30.00F
BENTONVILLE    MOSUNNY   81  63  54 S14       29.97F
ROGERS         PTSUNNY   80  65  59 S14       29.97S
SILOAM SPGS    PTSUNNY   81  64  57 S12       29.95F
HIGHFILL       PTSUNNY   79  66  64 S14       29.95F
SPRINGDALE     PTSUNNY   79  64  61 S15G21    29.99S
$$

ARZ004-005-016-252100-
NORTH CENTRAL ARKANSAS

CITY           SKY/WX    TMP DP  RH WIND       PRES   REMARKS
BATESVILLE     PTSUNNY   81  68  65 SE9G16    30.02S
FLIPPIN        PTSUNNY   81  66  61 S9G17     29.97F
MTN HOME       PTSUNNY   79  66  64 S8        29.98F
$$

ARZ040-041-252100-
WEST CENTRAL ARKANSAS

CITY           SKY/WX    TMP DP  RH WIND       PRES   REMARKS
MENA           PTSUNNY   81  70  69 SE5       29.95F
MOUNT IDA      PTSUNNY   78  68  71 VRB5      29.95F
$$

ARZ009-017-025-026-028-252100-
NORTHEAST ARKANSAS

CITY           SKY/WX    TMP DP  RH WIND       PRES   REMARKS
CORNING          N/A     81  68  65 S15       30.03F
JONESBORO      PTSUNNY   78  70  76 S15       30.03F
NEWPORT        CLOUDY    81  69  66 S15       30.04F
WALNUT RIDGE   PTSUNNY   79  66  65 S14G21    30.03S
BLYTHEVILLE    CLOUDY    78  70  76 S13       30.05F
$$

ARZ022-023-033-042-044-252100-
CENTRAL ARKANSAS

CITY           SKY/WX    TMP DP  RH WIND       PRES   REMARKS
LITTLE ROCK    PTSUNNY   83  68  60 S8        30.00F HX  86
N LITTLE ROCK  PTSUNNY   82  71  69 S9        30.00F HX  86
JACKSONVILLE   MOSUNNY   81  70  68 S9        30.01F HX  85
SEARCY         PTSUNNY   80  69  69 S12       30.03F
HOT SPRINGS    PTSUNNY   81  68  64 S8        29.98F
RUSSELLVILLE   MOSUNNY   79  69  71 SE8       29.98F
CLINTON        PTSUNNY   79  70  73 S7        30.02F
$$

ARZ036-252100-
EAST ARKANSAS

CITY           SKY/WX    TMP DP  RH WIND       PRES   REMARKS
WEST MEMPHIS   CLOUDY    79  72  79 S8        30.04F
$$

ARZ050-053-066-070-073-252100-
SOUTHWEST ARKANSAS

CITY           SKY/WX    TMP DP  RH WIND       PRES   REMARKS
ARKADELPHIA    FAIR      84  73  69 VRB5      29.96F HX  90
CAMDEN         MOSUNNY   86  68  54 NE9       29.98F HX  89
TEXARKANA      PTSUNNY   82  73  74 VRB6G16   29.91F HX  87
EL DORADO      PTSUNNY   85  69  58 SE9       29.98F HX  89
DE QUEEN       PTSUNNY   84  70  62 SE8       29.87F HX  88
$$

ARZ056-057-069-252100-
SOUTHEAST ARKANSAS

CITY           SKY/WX    TMP DP  RH WIND       PRES   REMARKS
PINE BLUFF     MOSUNNY   83  69  62 S10       30.01F HX  86
STUTTGART      MOSUNNY   82  70  65 MISG      30.03F HX  86
MONTICELLO     MOSUNNY   86  70  58 SE8       30.00F HX  90

$$





USA.gov is the U.S. government's official web portal to all federal, state and local government web resources and services.